TimePST,TemperatureF,Dew PointF,Humidity,Sea Level PressureIn,VisibilityMPH,Wind Direction,Wind SpeedMPH,Gust SpeedMPH,PrecipitationIn,Events,Conditions,WindDirDegrees,DateUTC
12:53 AM,25.0,12.9,60,30.14,10.0,Calm,Calm,-,N/A,,Clear,0,2013-02-26 08:53:00
1:53 AM,23.0,12.0,63,30.13,10.0,SSW,3.5,-,N/A,,Clear,210,2013-02-26 09:53:00
2:53 AM,19.9,12.0,71,30.16,10.0,Calm,Calm,-,N/A,,Clear,0,2013-02-26 10:53:00
3:53 AM,19.0,10.9,71,30.17,10.0,Calm,Calm,-,N/A,,Clear,0,2013-02-26 11:53:00
4:53 AM,18.0,10.0,71,30.19,10.0,SSW,4.6,-,N/A,,Clear,200,2013-02-26 12:53:00
5:53 AM,17.1,9.0,71,30.24,10.0,Calm,Calm,-,N/A,,Clear,0,2013-02-26 13:53:00
6:53 AM,17.1,8.1,68,30.26,10.0,Calm,Calm,-,N/A,,Clear,0,2013-02-26 14:53:00
7:53 AM,19.0,10.0,68,30.26,10.0,South,3.5,-,N/A,,Clear,190,2013-02-26 15:53:00
8:53 AM,30.9,10.9,43,30.22,10.0,Calm,Calm,-,N/A,,Clear,0,2013-02-26 16:53:00
9:53 AM,35.1,12.0,39,30.20,10.0,NE,4.6,-,N/A,,Clear,40,2013-02-26 17:53:00
10:53 AM,37.9,6.1,27,30.20,10.0,NE,8.1,-,N/A,,Clear,40,2013-02-26 18:53:00
11:53 AM,39.0,9.0,29,30.20,10.0,NNE,8.1,-,N/A,,Clear,20,2013-02-26 19:53:00
12:53 PM,39.9,3.0,21,30.19,10.0,NNE,8.1,-,N/A,,Clear,30,2013-02-26 20:53:00
1:53 PM,42.1,-0.0,17,30.17,10.0,NNE,6.9,-,N/A,,Clear,30,2013-02-26 21:53:00
2:53 PM,43.0,1.0,17,30.19,10.0,Variable,5.8,-,N/A,,Clear,0,2013-02-26 22:53:00
3:53 PM,41.0,-0.0,18,30.21,10.0,NNE,5.8,-,N/A,,Clear,20,2013-02-26 23:53:00
4:53 PM,37.9,5.0,25,30.25,10.0,Calm,Calm,-,N/A,,Clear,0,2013-02-27 00:53:00
5:53 PM,33.1,8.1,35,30.27,10.0,Calm,Calm,-,N/A,,Clear,0,2013-02-27 01:53:00
6:53 PM,30.0,12.0,47,30.31,10.0,Calm,Calm,-,N/A,,Clear,0,2013-02-27 02:53:00
7:53 PM,28.0,10.9,49,30.32,10.0,Calm,Calm,-,N/A,,Clear,0,2013-02-27 03:53:00
8:53 PM,27.0,10.9,51,30.28,10.0,South,4.6,-,N/A,,Clear,190,2013-02-27 04:53:00
9:53 PM,26.1,10.0,51,30.27,10.0,Calm,Calm,-,N/A,,Clear,0,2013-02-27 05:53:00
10:53 PM,25.0,10.0,53,30.26,10.0,SSW,3.5,-,N/A,,Clear,200,2013-02-27 06:53:00
11:53 PM,23.0,10.0,58,30.27,10.0,SSW,3.5,-,N/A,,Clear,200,2013-02-27 07:53:00